Santiago, Dominican Republic

11:05 AM AST on November 19, 2017 (GMT -0400)
Cibao International

Weather History for MDST - January, 2013

Change the Weather History Date:

Sunday, January 20, 2013

  Actual Average Record
Temperature  
Mean Temperature 74 °F -  
Max Temperature 84 °F 85 °F 87 °F (1998)
Min Temperature 64 °F 65 °F 56 °F (2017)
Cooling Degree Days 9    
Growing Degree Days 24 (Base 50)    
Moisture  
Dew Point 67 °F    
Average Humidity 83    
Maximum Humidity 100    
Minimum Humidity 51    
Precipitation  
Precipitation 0.00 in 0.06 in - ()
Sea Level Pressure  
Sea Level Pressure 30.02 in    
Wind  
Wind Speed 4 mph ()    
Max Wind Speed 15 mph    
Max Gust Speed -    
Visibility 6.4 miles    
Events      
Averages and records for this station are not official NWS values.
T = Trace of Precipitation, MM = Missing Value Source: Averaged Metar Reports

Daily Weather History Graph

Daily Weather History Graph

Search for Another Location

Airport or City:

Trip Planner

Search our weather history database for the weather conditions in past years. The results will help you decide how hot, cold, wet, or windy it might be!

Date:

Astronomy

Jan. 20, 2013 Rise Set
Actual Time 7:19 AM AST 6:28 PM AST
Civil Twilight 6:56 AM AST 6:51 PM AST
Nautical Twilight 6:29 AM AST 7:18 PM AST
Astronomical Twilight 6:03 AM AST 7:45 PM AST
Moon 1:25 PM AST (1/20) 1:53 AM AST (1/20)
Length of Visible Light 11h 55m
Length of Day
11h 08m
Waxing Gibbous, 66% of the Moon is Illuminated
Jan 20
Waxing Gibbous
Jan 27
Full
Feb 3
Last Quarter
Feb 10
New
Feb 17
First Quarter

Hourly Weather History & Observations

Time (AST) Temp. Heat Index Dew Point Humidity Pressure Visibility Wind Dir Wind Speed Gust Speed Precip Events Conditions
12:00 AM 68.0 °F - 68.0 °F 100% 30.06 in 6.2 mi ESE 4.6 mph - N/A   Partly Cloudy
1:00 AM 68.0 °F - 68.0 °F 100% 30.04 in 6.2 mi Calm Calm - N/A   Partly Cloudy
2:00 AM 68.0 °F - 68.0 °F 100% 30.04 in 6.2 mi Calm Calm - N/A   Partly Cloudy
3:00 AM 66.2 °F - 66.2 °F 100% 30.01 in 6.2 mi ESE 4.6 mph - N/A   Partly Cloudy
4:00 AM 66.2 °F - 64.4 °F 94% 30.01 in 6.2 mi Calm Calm - N/A   Partly Cloudy
5:00 AM 66 °F - 65 °F 95% 30.01 in 5 mi Calm Calm - -   Haze
5:00 AM 66.2 °F - 64.4 °F 94% 30.01 in 6.2 mi Calm Calm - N/A   Partly Cloudy
6:00 AM 64.4 °F - 64.4 °F 100% 30.01 in 3.1 mi Calm Calm - N/A   Partly Cloudy
7:00 AM 64.4 °F - 64.4 °F 100% 30.01 in 6.2 mi Calm Calm - N/A   Partly Cloudy
8:00 AM 64 °F - 64 °F 99% 30.05 in - Calm Calm - -   Mist
8:00 AM 64.4 °F - 64.4 °F 100% 30.04 in 3.1 mi Calm Calm - N/A   Partly Cloudy
8:10 AM 64.4 °F - 64.4 °F 100% 30.04 in 6.2 mi SSW 4.6 mph - N/A   Partly Cloudy
9:00 AM 66.2 °F - 64.4 °F 94% 30.06 in 6.2 mi Calm Calm - N/A   Partly Cloudy
10:00 AM 73.4 °F - 69.8 °F 88% 30.09 in 6.2 mi Calm Calm - N/A   Scattered Clouds
11:00 AM 76 °F - 71 °F 79% 29.96 in 7 mi SE 4.5 mph - -   Haze
11:00 AM 75.2 °F - 71.6 °F 89% 30.09 in 6.2 mi SE 4.6 mph - N/A   Scattered Clouds
12:00 PM 80.6 °F 83.9 °F 69.8 °F 70% 30.06 in 6.2 mi SSW 13.8 mph - N/A   Scattered Clouds
1:00 PM 80.6 °F 83.2 °F 68.0 °F 65% 30.04 in 6.2 mi SE 15.0 mph - N/A   Scattered Clouds
2:00 PM 82 °F - 67 °F 52% 30.01 in 9 mi SSE 11.2 mph - -   Haze
2:00 PM 82.4 °F 85.4 °F 68.0 °F 62% 30.01 in 6.2 mi SSE 11.5 mph - N/A   Scattered Clouds
3:00 PM 84.2 °F 86.6 °F 66.2 °F 55% 29.95 in 6.2 mi SE 8.1 mph - N/A   Scattered Clouds
4:00 PM 84.2 °F 86.6 °F 66.2 °F 55% 29.95 in 6.2 mi East 10.4 mph - N/A   Scattered Clouds
5:00 PM 83 °F - 68 °F 51% 29.96 in 9 mi East 13.4 mph - -   Haze
5:00 PM 82.4 °F 85.4 °F 68.0 °F 62% 29.95 in 6.2 mi East 13.8 mph - N/A   Scattered Clouds
6:00 PM 78.8 °F - 68.0 °F 69% 29.98 in 6.2 mi SE 4.6 mph - N/A   Scattered Clouds
7:00 PM 75.2 °F - 68.0 °F 78% 29.98 in 6.2 mi SE 9.2 mph - N/A   Scattered Clouds
8:00 PM 73 °F - 68 °F 78% 30.01 in 10 mi SE 6.7 mph - -   Partly Cloudy
8:00 PM 73.4 °F - 68.0 °F 83% 30.01 in 6.2 mi SE 6.9 mph - N/A   Scattered Clouds
9:00 PM 73.4 °F - 68.0 °F 83% 30.01 in 6.2 mi SSE 4.6 mph - N/A   Scattered Clouds
10:00 PM 71.6 °F - 68.0 °F 88% 30.01 in 6.2 mi SSE 5.8 mph - N/A   Scattered Clouds
11:00 PM 70 °F - 69 °F 94% 30.05 in 10 mi Calm Calm - -   Scattered Clouds
11:00 PM 69.8 °F - 68.0 °F 94% 30.04 in 6.2 mi Calm Calm - N/A   Partly Cloudy